Location: Caltech
(34.1382°N, 118.1253°W)
Time: 10:12:42
(UTC-07:00)

AO-27 - Visible Passes

Search period start: 26 April 2015 00:00
Search period end: 06 May 2015 00:00
Orbit: 785 x 799 km, 98.7° (Epoch: 25 April)

Date Brightness Start Highest point End Pass type
(mag) Time Alt. Az. Time Alt. Az. Time Alt. Az.
26 Apr 7.9 03:27:24 10° N 03:31:46 62° N 03:31:46 62° N visible
27 Apr 8.6 02:58:36 10° NNE 03:02:35 45° ENE 03:02:35 45° ENE visible
27 Apr 9.3 04:39:38 10° NNW 04:42:48 16° WNW 04:43:21 16° WNW visible
28 Apr 9.5 02:30:17 10° NE 02:33:24 24° ENE 02:33:24 24° ENE visible
28 Apr 8.6 04:09:36 10° N 04:14:06 30° WNW 04:14:10 30° WNW visible
29 Apr 10.2 02:03:00 10° ENE 02:04:12 12° ENE 02:04:12 12° ENE visible
29 Apr 7.8 03:40:14 10° N 03:44:59 57° NW 03:44:59 57° NW visible
30 Apr 8.0 03:11:16 10° NNE 03:15:47 64° NE 03:15:47 64° NE visible
30 Apr 9.6 04:53:26 10° NW 04:55:27 12° WNW 04:56:34 11° WNW visible
01 May 9.0 02:42:42 10° NNE 02:46:36 34° ENE 02:46:36 34° ENE visible
01 May 8.9 04:22:44 10° NNW 04:26:47 23° WNW 04:27:22 22° WNW visible
02 May 9.9 02:14:49 10° NE 02:17:25 18° E 02:17:25 18° E visible
02 May 8.1 03:53:07 10° N 03:58:02 43° WNW 03:58:11 43° WNW visible
03 May 7.6 03:24:00 10° NNE 03:28:59 81° NNW 03:28:59 81° NNW visible
04 May 8.4 02:55:15 10° NNE 02:59:47 47° E 02:59:47 47° E visible
04 May 9.3 04:36:01 10° NNW 04:39:27 17° WNW 04:40:33 16° W visible
05 May 9.4 02:27:00 10° NE 02:30:35 24° E 02:30:35 24° E visible
05 May 8.5 04:06:07 10° N 04:10:44 32° WNW 04:11:22 31° W visible
